Regional Weather Roundup
Issued by NWS

Home | Current Version | Previous Version | Text Only | Print | Product List | Glossary On
Versions: 1 2 3 4 5 6 7 8 9 10 11 12 13 14 15 16 17 18 19 20 21 22 23 24 25 26 27 28 29 30 31 32 33 34 35 36 37 38 39 40 41 42 43 44 45 46 47 48 49 50
000
ASUS43 KDTX 222210
RWRMI
MICHIGAN HOURLY REGIONAL WEATHER ROUNDUP
NATIONAL WEATHER SERVICE DETROIT/PONTIAC MI
600 PM EDT TUE JUL 22 2014

NOTE: "FAIR" INDICATES FEW OR NO CLOUDS BELOW 12,000 FEET WITH NO
SIGNIFICANT WEATHER AND/OR OBSTRUCTION TO VISIBILITY.

MIZ047>049-052>055-059>063-066>070-074>076-081>083-222300-
SOUTHEAST LOWER MICHIGAN

CITY           SKY/WX    TMP DP  RH WIND       PRES   REMARKS
ADRIAN         SUNNY     89  65  44 SW10      29.99F HX  91
ALMA           MOSUNNY   85  64  48 S10       29.92S
ANN ARBOR      SUNNY     88  65  46 SW12      29.97F HX  90
BAD AXE        SUNNY     86  66  50 SW10G18   29.92S
CARO           SUNNY     89  67  49 SW13G20   29.92S HX  92
DETROIT CITY   SUNNY     91  65  41 SW16      29.96F HX  93
DETROIT        MOSUNNY   90  66  45 SW14      29.98F HX  92
FLINT          SUNNY     88  66  48 S15G21    29.93F HX  90
GROSSE ILE     SUNNY     86  70  58 SW10      29.97S HX  90
HILLSDALE      SUNNY     86  66  50 SW8       30.01S
HOWELL         SUNNY     86  64  47 S13       29.96F

CITY           SKY/WX    TMP DP  RH WIND       PRES   REMARKS
JACKSON        SUNNY     86  68  54 S12       29.98F
LAMBERTVILLE   SUNNY     90  63  40 S7G17     29.99F HX  90
LANSING        SUNNY     85  66  53 S16       29.95F
LAPEER         FAIR      87  64  46 SW13      29.95F
MASON          SUNNY     84  67  56 SW5       29.96F
MONROE         SUNNY     90  63  40 SW9G17    29.97S HX  90
MT. CLEMENS    MOSUNNY   89  65  44 SW13      29.94F HX  91
PONTIAC        PTSUNNY   86  63  45 SW14G22   29.96F
PORT HOPE        N/A     87  65  47 S10G20    29.89F
PORT HURON     SUNNY     84  68  58 S10       29.95F
TRI CITIES     SUNNY     88  67  49 SW15G25   29.91F HX  91
TROY           SUNNY     89  62  40 SW10G18   29.97F
SAGINAW HB     SUNNY     88  64  45 SW14G21   29.90F
$$
MIZ043>046-050>051-056>058-064>065-071>073-077>080-222300-
SOUTHWEST LOWER MICHIGAN

CITY           SKY/WX    TMP DP  RH WIND       PRES   REMARKS
BATTLE CREEK   SUNNY     87  67  51 SW15      29.97F HX  90
BENTON HARBOR  SUNNY     86  68  54 S15       29.95S
BIG RAPIDS     CLOUDY    82  67  61 SW12      29.94R
COLDWATER      SUNNY     86  68  54 SW8       29.99F
FREMONT        CLOUDY    82  64  55 SW12G18   29.94R
HOLLAND        MOSUNNY   89  69  51 SW13      29.94R HX  93
GRAND RAPIDS   PTSUNNY   88  70  55 S13       29.93S HX  93
IONIA          FAIR      86  66  50 S16       29.92F
KALAMAZOO      SUNNY     87  68  52 S17       29.95F HX  90
LUDINGTON      MOSUNNY   80  69  68 S20G26    29.91F
MARSHALL       SUNNY     85  69  58 SW9       29.97F
MOUNT PLEASANT MOSUNNY   86  65  49 SW15G22   29.90S
MUSKEGON       PTSUNNY   81  66  60 SW16G23   29.94R
SOUTH HAVEN    SUNNY     87  71  59 SW13      29.94R HX  92
$$
MIZ016>042-222300-
NORTHERN LOWER MICHIGAN

CITY           SKY/WX    TMP DP  RH WIND       PRES   REMARKS
ALPENA         CLOUDY    84  67  56 VRB7      29.84R
BEAVER ISLAND  PTSUNNY   67  63  85 SW17G23   29.88R
BELLAIRE       PTSUNNY   85  70  60 SW12      29.85S
CADILLAC       CLOUDY    79  71  75 W9        29.93S
CHARLEVOIX     CLOUDY    82  71  68 SW16      29.87S
FRANKFORT      PTSUNNY   78  65  64 S16G24    29.89S
GAYLORD        MOSUNNY   82  70  66 SW21G26   29.89S
GRAYLING       CLOUDY    81  70  68 W8G17     29.91R
HARBOR SPRINGS CLOUDY    79  71  75 W8        29.84R
HOUGHTON LAKE  CLOUDY    81  68  64 SW12G18   29.91R
MANISTEE       MOSUNNY   82  68  61 S12G21    29.90S
OSCODA         CLOUDY    86  64  48 SW16G25   29.85F
PELLSTON       PTSUNNY   80  71  74 W9        29.84R
ROGERS CITY    PTSUNNY   82  73  74 SW15G25   29.83S
TRAVERSE CITY  MOSUNNY   85  69  58 SW10G23   29.85S
$$
MIZ007>008-015-222300-
EASTERN UPPER MICHIGAN

CITY           SKY/WX    TMP DP  RH WIND       PRES   REMARKS
KINROSS        PTSUNNY   72  68  88 W10G16    29.84R
MACKINAC ISLAN CLOUDY    68  64  85 W17G24    29.85R
NEWBERRY       MOSUNNY   74  62  66 MISG      29.86R HAZE
S. S. MARIE    CLOUDY    69  62  78 W15G25    29.84R
MUNISING         N/A     68  56  65 NW17G32   29.93R
$$
MIZ004>006-011>014-085-222300-
CENTRAL UPPER MICHIGAN

CITY           SKY/WX    TMP DP  RH WIND       PRES   REMARKS
MANISTIQUE     SUNNY     80  65  61 NW17G25   29.86R
ESCANABA       MOSUNNY   82  63  51 NW12G23   29.87R
MENOMINEE      PTSUNNY   88  66  48 N14G23    29.87R HX  90
SAWYER-GWINN   LGT RAIN  72  63  73 NW20G28   29.94
$$
MIZ001>003-009>011-084-222300-
WESTERN UPPER MICHIGAN

CITY           SKY/WX    TMP DP  RH WIND       PRES   REMARKS
IRON MOUNTAIN  CLOUDY    76  62  62 NW14      29.95R
HOUGHTON       CLOUDY    63  55  75 NW15G23   30.00R
COPPER HARBOR    N/A     60  53  77 N23G35    29.95
IRONWOOD       CLOUDY    66  57  72 N7        30.03R
$$

ABBREVIATIONS USED IN REMARKS
   TC - TEMPERATURE IN CELSIUS
  WCI - WIND CHILL INDEX
   HX - HEAT INDEX
  VSB - VISIBILITY



USA.gov is the U.S. government's official web portal to all federal, state and local government web resources and services.